Location: Newark
(48.4472°N, 1.4892°E)
Time: 10:52:43
(UTC+00:00)

Transit 4A - Pass Details

Date: 18 January 2021
Orbit: 866 x 978 km, 66.8° (Epoch: 26 February)

Event Time Altitude Azimuth Distance (km) Brightness Sun altitude
Exits shadow 05:12:13 45° 313° (NW) 1,265 8.2 -23.7°
Maximum altitude 05:14:14 75° 239° (WSW) 962 7.8 -23.4°
Drops below altitude 10° 05:20:14 10° 155° (SSE) 2,585 10.6 -22.4°
Sets 05:22:41 0° 153° (SSE) 3,506 11.4 -22.0°
